Location: Pilipovskiye Korichintsy
(49.1833°N, 27.4667°E)
Time: 22:34:48
(UTC+00:00)

Cosmos 1954 Rocket - Pass Details

Date: 14 July 2020
Orbit: 751 x 782 km, 74.0° (Epoch: 10 August)

Event Time Altitude Azimuth Distance (km) Brightness Sun altitude
Exits shadow 00:28:04 17° 191° (S) 1,855 5.4 -13.3°
Maximum altitude 00:32:05 71° 110° (ESE) 821 4.2 -13.0°
Drops below altitude 10° 00:37:23 10° 27° (NNE) 2,342 8.0 -12.5°
Sets 00:39:48 0° 25° (NNE) 3,277 9.2 -12.3°
